Location: ??? ?????
(30.0042°N, 31.1245°E)
Time: 01:23:43
(UTC+00:00)

Daily predictions for brighter satellites

Satellite Brightness Start Highest point End
(mag) Time Altitude Azimuth Time Altitude Azimuth Time Altitude Azimuth
Cosmos 2369 Rocket 4.3 00:01:28 10° N 00:05:53 24° ENE 00:10:18 10° ESE
Lacrosse 5 4.0 00:07:00 16° NW 00:07:15 16° NW 00:10:24 10° N
Cosmos 2074 Rocket 3.9 00:08:26 10° NNW 00:14:31 68° W 00:14:31 68° W
Cosmos 1295 Rocket 4.5 00:14:15 10° N 00:20:38 82° E 00:22:01 57° SSE
DNEPR-1 R/B 4.1 00:24:28 52° NNE 00:24:28 52° NNE 00:27:48 10° NNE
Cosmos 1603 3.6 00:24:26 70° SSE 00:24:53 74° ESE 00:30:31 10° NNE
COSMOS 2455 3.6 00:25:36 37° WNW 00:25:46 37° WNW 00:31:20 10° N
ATLAS CENTAUR Rocket 3.9 00:25:38 41° SSW 00:25:55 41° S 00:51:12 10° SE
Cosmos 2184 Rocket 4.2 00:24:37 10° NNW 00:30:23 50° W 00:30:23 50° W
Cosmos 1610 Rocket 4.3 00:27:29 10° N 00:33:36 79° W 00:34:47 60° SSW
CZ-2D R/B 3.9 00:37:51 10° NNW 00:40:53 18° WNW 00:40:53 18° WNW
Cosmos 2228 2.9 00:37:55 10° N 00:42:07 82° NNE 00:42:07 82° NNE
NOSS 3-3 (A) 4.0 00:42:45 46° W 00:43:29 48° WNW 00:49:19 10° NNE
NOSS 3-3 (C) 4.0 00:42:51 46° W 00:43:35 49° WNW 00:49:25 10° NNE
Cosmos 2181 Rocket 4.3 00:41:00 31° SSE 00:44:03 65° E 00:50:10 10° NNE
Cosmos 1271 Rocket 4.1 00:40:50 10° NNW 00:43:00 31° NNW 00:43:00 31° NNW
MSX 4.0 00:41:33 10° N 00:47:11 56° WNW 00:48:07 50° WSW
Cosmos 962 Rocket 4.5 00:41:46 10° N 00:47:54 79° E 00:51:33 26° SSE
SeaSat 1 4.3 00:47:15 10° NE 00:51:10 24° ESE 00:54:11 14° SSE
Cosmos 1943 3.5 00:54:21 45° W 00:55:20 50° WNW 01:00:52 10° N
Meteor 2-1 Rocket 4.1 01:01:00 10° N 01:06:43 89° W 01:10:50 19° S
Cosmos 1624 Rocket 3.9 01:05:55 41° SSW 01:07:51 83° WNW 01:13:11 10° NNE
Cosmos 1328 4.4 01:09:04 40° WNW 01:09:04 40° WNW 01:12:30 10° N
OAO 2 Rocket 3.7 01:07:13 32° WNW 01:09:21 58° NNW 01:14:13 10° ENE
SEDSat Delta rocket 4.0 01:07:44 32° WSW 01:11:10 89° S 01:17:56 10° E
IRS-1C 4.5 01:07:07 10° NNE 01:12:24 61° ESE 01:16:14 19° S
Helios 1B rocket 2.4 01:11:19 10° N 01:15:19 62° WNW 01:16:12 48° SW
ARIANE 5 R/B 3.1 01:11:46 10° NNE 01:16:41 54° E 01:20:42 15° S
GPS 2-04 Rocket1 3.4 01:16:42 31° NW 01:17:42 39° N 01:21:01 10° ENE
Cosmos 1606 Rocket 3.6 01:13:34 10° NNW 01:17:50 54° W 01:18:57 41° SW
Cosmos 2056 Rocket 3.5 01:17:44 36° SW 01:19:43 62° WNW 01:24:54 10° N
CBERS-1 4.3 01:14:59 10° N 01:19:56 51° WNW 01:21:53 33° SW
IDEFIX/ARIANE 42P 4.2 01:16:53 10° NNW 01:20:19 18° WNW 01:21:05 17° WNW
Cosmos 1943 Rocket 3.6 01:16:24 10° NW 01:19:23 20° W 01:19:23 20° W
ADEOS II 4.0 01:18:24 10° NW 01:21:01 14° WNW 01:21:40 14° WNW
FENGYUN 3A 3.6 01:16:50 10° N 01:22:13 84° WNW 01:25:42 23° SSW
Cosmos 1825 3.0 01:22:58 16° SSE 01:25:43 47° E 01:29:18 10° NNE
Cosmos 2263 4.1 01:21:32 10° NNW 01:27:15 87° WSW 01:32:58 10° SSE
OAO 3 Copernicus 4.3 01:28:29 29° WSW 01:31:07 85° NNW 01:36:10 10° ENE
Cosmos 2366 rocket 3.9 01:25:31 10° N 01:31:41 79° W 01:37:53 10° S
Lacrosse 4 Rocket 1.4 01:30:18 30° SSW 01:32:23 81° WNW 01:36:40 10° NNE
CZ-2C R/B 2.7 01:32:17 17° SSE 01:33:10 19° SSE 01:35:43 10° E
Okean 1-7 Rocket 3.5 01:31:51 19° S 01:34:56 85° W 01:39:22 10° N
Cosmos 2341 Rocket 4.3 01:28:59 10° NNW 01:35:04 48° W 01:40:06 15° SSW
Cosmos 2251 Rocket 4.0 01:31:42 10° NNW 01:36:33 39° W 01:40:16 16° SSW
SL-8 Rocket 4.1 01:32:11 10° NNW 01:38:20 55° W 01:44:26 10° SSW
MOS 1-B Rocket 3.8 01:33:43 10° S 01:39:22 66° WSW 01:44:58 10° NNW
ALOS 2.3 01:35:22 10° N 01:39:57 62° WNW 01:43:09 20° SSW
Cosmos 1190 Rocket 4.2 01:35:59 10° NNW 01:41:17 74° ENE 01:46:34 10° SSE
Cosmos 1892 3.3 01:43:29 26° SW 01:44:57 38° W 01:48:30 10° NNW
Palapa 6 Rocket 4.4 01:41:41 22° WSW 01:45:08 41° S 01:51:41 10° ESE
SL-16 R/B 4.4 01:45:53 10° W 01:45:53 10° W 01:46:14 10° W
Cosmos 1408 3.5 01:45:04 25° WSW 01:46:04 29° W 01:49:17 10° NNW
Cosmos 2369 Rocket 2.7 01:44:53 10° NW 01:49:54 35° WSW 01:54:54 10° SSW
Cosmos 1602 Rocket 3.8 01:45:56 10° S 01:50:23 74° E 01:54:50 10° N
Cosmos 1484 Rocket 3.4 01:47:48 10° NNE 01:51:38 57° E 01:55:30 10° S
IRS-P3 4.3 01:47:46 10° N 01:52:58 56° WNW 01:57:40 13° SSW
Spot 4 Rocket 4.5 01:47:58 10° NNE 01:53:03 62° ESE 01:58:06 10° S
Cosmos 1656 Rocket 3.9 01:48:15 10° NW 01:53:19 42° WSW 01:58:23 10° S
PAYLOAD A 4.2 01:49:01 10° N 01:53:35 46° WNW 01:57:27 15° SW
CZ-2C R/B 2.8 01:49:42 10° N 01:54:30 46° WNW 01:58:23 15° SW
FALCON 9 R/B 3.9 01:43:45 10° WNW 01:56:54 30° SW 02:01:54 10° S
In-Cosmos 22 Rocket 4.5 01:53:24 12° SSW 01:58:36 53° W 02:04:17 10° N
IUS-13 SRM-1 2.5 01:59:02 19° SW 02:00:11 26° S 02:01:51 10° ESE
ATLAS 3B CENTAUR R/B 2.7 02:00:36 15° SW 02:03:23 36° SSE 02:09:12 10° E
SL-08 R/B 4.5 02:00:29 10° N 02:06:41 83° W 02:12:58 10° S
Meteor 1-27 4.2 02:04:20 10° N 02:10:05 83° W 02:15:42 10° S
Nadezhda 3 Rocket 4.2 02:08:49 10° SSW 02:15:01 58° W 02:21:12 10° N
SL-08 R/B 3.3 02:10:50 10° SSE 02:15:25 90° SW 02:20:03 10° NNW
H-2A R/B 4.2 02:12:35 10° NNE 02:15:59 36° E 02:19:19 10° SSE
Landsat 4 4.1 02:14:33 10° NNE 02:18:11 64° ESE 02:21:48 10° S
Cosmos 407 Rocket 4.5 02:16:03 10° NW 02:20:23 26° W 02:24:40 10° SSW
YAOGAN 6 2.8 02:16:56 10° NNE 02:20:33 73° E 02:24:09 10° S
Cosmos 489 Rocket 4.5 02:14:52 10° NNW 02:21:07 77° WSW 02:27:22 10° S
SL-24 R/B 4.4 02:16:17 10° N 02:21:08 86° E 02:25:58 10° S
MINOTAUR 4 R/B 4.0 02:21:02 10° SSE 02:24:30 88° WSW 02:28:01 10° NNW
Cosmos 1452 Rocket 3.8 02:19:26 10° SSW 02:24:32 50° WNW 02:29:39 10° N
SeaSat 1 3.4 02:24:13 10° N 02:28:36 33° WNW 02:32:58 10° WSW
DELTA 2 R/B (1) 4.0 02:23:45 10° SW 02:29:11 56° SE 02:34:37 10° ENE
CZ-3 R/B 3.6 01:53:39 10° W 02:32:16 82° S 02:40:55 10° ESE
